Livingston, MT

1:47 AM MDT on May 01, 2017 (GMT -0600)
Mission

Weather History for KLVM - June, 2013

Change the Weather History Date:

Sunday, June 16, 2013

  Actual Average Record
Temperature  
Mean Temperature 58 °F 59 °F  
Max Temperature 80 °F 73 °F 91 °F (1988)
Min Temperature 37 °F 44 °F 33 °F (1998)
Degree Days  
Heating Degree Days 7 7  
Month to date heating degree days 139  
Since 1 June heating degree days 139  
Since 1 July heating degree days 7535  
Cooling Degree Days 0 0  
Month to date cooling degree days 0  
Year to date cooling degree days 1  
Since 1 June cooling degree days 0  
Growing Degree Days 8 (Base 50)    
Moisture  
Dew Point 40 °F    
Average Humidity 49    
Maximum Humidity 86    
Minimum Humidity 23    
Precipitation  
Precipitation 0.00 in 0.08 in 2.90 in (1992)
Month to date precipitation 1.46  
Year to date precipitation 7.72  
Sea Level Pressure  
Sea Level Pressure 30.02 in    
Wind  
Wind Speed 5 mph (East)    
Max Wind Speed 20 mph    
Max Gust Speed 30 mph    
Visibility 10 miles    
Events      
T = Trace of Precipitation, MM = Missing Value Source: NWS Daily Summary

Daily Weather History Graph

Daily Weather History Graph

Search for Another Location

Airport or City:

Trip Planner

Search our weather history database for the weather conditions in past years. The results will help you decide how hot, cold, wet, or windy it might be!

Date:

Astronomy

Jun. 16, 2013 Rise Set
Actual Time 5:31 AM MDT 9:13 PM MDT
Civil Twilight 4:53 AM MDT 9:51 PM MDT
Nautical Twilight 4:02 AM MDT 10:43 PM MDT
Astronomical Twilight 2:52 AM MDT 11:53 PM MDT
Moon 1:33 PM MDT (6/16) 12:59 AM MDT (6/16)
Length of Visible Light 16h 58m
Length of Day
15h 42m
Waxing Crescent, 50% of the Moon is Illuminated
Jun 16
Waxing Crescent
Jun 23
Full
Jun 29
Last Quarter
Jul 8
New
Jul 15
First Quarter

Hourly Weather History & Observations

Time (MDT) Temp. Windchill Dew Point Humidity Pressure Visibility Wind Dir Wind Speed Gust Speed Precip Events Conditions
12:53 AM 48.0 °F - 37.9 °F 68% 29.99 in 10.0 mi South 4.6 mph - N/A   Clear
1:53 AM 45.0 °F - 36.0 °F 71% 30.01 in 10.0 mi Calm Calm - N/A   Clear
2:53 AM 44.1 °F - 36.0 °F 73% 30.03 in 10.0 mi Calm Calm - N/A   Clear
3:53 AM 43.0 °F - 35.1 °F 74% 30.04 in 10.0 mi Calm Calm - N/A   Clear
4:53 AM 37.0 °F 34.5 °F 33.1 °F 86% 30.05 in 10.0 mi WSW 3.5 mph - N/A   Clear
5:53 AM 43.0 °F 40.3 °F 36.0 °F 76% 30.05 in 10.0 mi WNW 4.6 mph - N/A   Clear
6:53 AM 46.0 °F 44.8 °F 37.9 °F 73% 30.05 in 10.0 mi NNW 3.5 mph - N/A   Clear
7:53 AM 51.1 °F - 37.9 °F 61% 30.05 in 10.0 mi Calm Calm - N/A   Clear
8:53 AM 55.9 °F - 39.0 °F 53% 30.06 in 10.0 mi West 3.5 mph - N/A   Clear
9:53 AM 63.0 °F - 39.9 °F 43% 30.05 in 10.0 mi Calm Calm - N/A   Clear
10:53 AM 66.9 °F - 36.0 °F 32% 30.03 in 10.0 mi Calm Calm - N/A   Clear
11:53 AM 70.0 °F - 37.9 °F 31% 30.03 in 10.0 mi Variable 4.6 mph - N/A   Clear
12:53 PM 73.0 °F - 39.0 °F 29% 30.01 in 10.0 mi Variable 4.6 mph - N/A   Clear
1:53 PM 75.0 °F - 39.0 °F 27% 30.00 in 10.0 mi East 6.9 mph - N/A   Clear
2:53 PM 78.1 °F - 39.0 °F 25% 29.99 in 10.0 mi ENE 8.1 mph - N/A   Clear
3:53 PM 78.1 °F - 37.0 °F 23% 29.97 in 10.0 mi ESE 6.9 mph - N/A   Clear
4:53 PM 79.0 °F - 39.9 °F 25% 29.99 in 10.0 mi East 8.1 mph - N/A   Clear
5:53 PM 78.1 °F - 43.0 °F 29% 29.97 in 10.0 mi ENE 17.3 mph - N/A   Clear
6:53 PM 75.9 °F - 43.0 °F 31% 29.99 in 10.0 mi ENE 16.1 mph - N/A   Clear
7:53 PM 72.0 °F - 43.0 °F 35% 29.99 in 10.0 mi ENE 17.3 mph 29.9 mph N/A   Clear
8:53 PM 66.9 °F - 45.0 °F 45% 30.01 in 10.0 mi ENE 19.6 mph 25.3 mph N/A   Clear
9:53 PM 66.9 °F - 45.0 °F 45% 30.03 in 10.0 mi East 17.3 mph - N/A   Clear
10:53 PM 64.0 °F - 46.0 °F 52% 30.04 in 10.0 mi East 17.3 mph 24.2 mph N/A   Scattered Clouds
11:53 PM 62.1 °F - 46.9 °F 58% 30.05 in 10.0 mi East 17.3 mph - N/A   Clear